FW1304 Weather Reports


Display with metric or nautical units.
time (UTC)temp
F
wind
direction
speed
MPH
gust
MPH
rain 1hr
in
rain 24hr
in
rain mn
in
humidity
%
barometer
mb
20260503023817 60 181 0.0 0.0 0.00 0.00 0.00 46 1006.6
20260503023334 60 201 0.0 0.0 0.00 0.00 0.00 46 1006.6
20260503022819 60 202 0.0 0.0 0.00 0.00 0.00 45 1006.6
20260503022327 61 202 0.0 0.0 0.00 0.00 0.00 45 1006.8
20260503021824 61 202 0.0 0.0 0.00 0.00 0.00 46 1006.8
20260503021321 61 177 0.0 0.0 0.00 0.00 0.00 46 1006.9
20260503020838 61 198 0.0 1.0 0.00 0.00 0.00 45 1007.0
20260503020325 61 200 0.0 1.0 0.00 0.00 0.00 44 1007.1
20260503015820 61 208 0.0 0.0 0.00 0.00 0.00 44 1007.4
20260503015337 61 229 0.0 0.0 0.00 0.00 0.00 43 1007.5
20260503014813 62 220 0.0 0.0 0.00 0.00 0.00 43 1007.4
20260503014332 62 225 0.0 0.0 0.00 0.00 0.00 42 1007.5
20260503013817 62 236 0.0 0.0 0.00 0.00 0.00 41 1007.5
20260503013314 62 219 0.0 2.0 0.00 0.00 0.00 41 1007.5
20260503012818 63 202 0.0 2.0 0.00 0.00 0.00 40 1007.6
20260503012335 63 234 0.0 4.0 0.00 0.00 0.00 39 1007.7
20260503011823 63 231 0.0 4.0 0.00 0.00 0.00 38 1007.8
20260503011327 63 245 1.0 5.0 0.00 0.00 0.00 37 1007.9
20260503010815 64 269 1.0 5.0 0.00 0.00 0.00 36 1007.9
20260503010352 64 245 0.0 6.0 0.00 0.00 0.00 35 1007.8
20260503005843 64 315 0.0 6.0 0.00 0.00 0.00 35 1007.8
20260503005333 64 242 2.0 10.0 0.00 0.00 0.00 35 1007.8
20260503004820 65 255 2.0 10.0 0.00 0.00 0.00 34 1007.8
20260503004325 65 250 2.0 8.0 0.00 0.00 0.00 33 1007.7
20260503003822 65 295 1.0 4.0 0.00 0.00 0.00 32 1007.6
20260503003340 65 254 0.0 2.0 0.00 0.00 0.00 33 1007.6
20260503002842 65 255 0.0 7.0 0.00 0.00 0.00 33 1007.5
20260503002329 65 249 1.0 7.0 0.00 0.00 0.00 32 1007.6
20260503001846 65 248 0.0 4.0 0.00 0.00 0.00 32 1007.6
20260503001328 65 242 0.0 5.0 0.00 0.00 0.00 33 1007.7
20260503000815 65 265 0.0 5.0 0.00 0.00 0.00 33 1007.7
20260503000332 65 265 0.0 4.0 0.00 0.00 0.00 33 1007.8
20260502235814 65 271 1.0 4.0 0.00 0.00 0.00 33 1007.9
20260502235323 65 236 0.0 2.0 0.00 0.00 0.00 34 1007.9
20260502234819 65 248 0.0 1.0 0.00 0.00 0.00 33 1007.8
20260502234322 65 300 0.0 5.0 0.00 0.00 0.00 34 1007.9
20260502233838 65 266 0.0 9.0 0.00 0.00 0.00 34 1008.0
20260502233325 66 319 1.0 9.0 0.00 0.00 0.00 34 1008.1
20260502232817 66 236 0.0 5.0 0.00 0.00 0.00 33 1008.0
20260502232313 66 260 1.0 5.0 0.00 0.00 0.00 32 1008.0
20260502231821 66 232 1.0 4.0 0.00 0.00 0.00 33 1007.9
20260502231333 66 271 1.0 4.0 0.00 0.00 0.00 32 1008.0
20260502230820 66 207 0.0 4.0 0.00 0.00 0.00 33 1008.1
20260502230338 66 260 0.0 6.0 0.00 0.00 0.00 33 1008.1
20260502225819 66 302 1.0 8.0 0.00 0.00 0.00 34 1008.3
20260502225327 66 256 2.0 6.0 0.00 0.00 0.00 33 1008.3
20260502224824 66 234 0.0 2.0 0.00 0.00 0.00 36 1008.1
20260502224344 66 232 0.0 0.0 0.00 0.00 0.00 35 1008.1
20260502223820 66 219 0.0 0.0 0.00 0.00 0.00 35 1008.3
20260502223327 66 240 0.0 1.0 0.00 0.00 0.00 35 1008.3
20260502222842 66 223 0.0 1.0 0.00 0.00 0.00 34 1008.3
20260502222328 66 224 0.0 1.0 0.00 0.00 0.00 35 1008.3
20260502221815 66 234 0.0 2.0 0.00 0.00 0.00 34 1008.5
20260502221347 66 279 0.0 4.0 0.00 0.00 0.00 34 1008.4
20260502220815 66 250 0.0 2.0 0.00 0.00 0.00 35 1008.5
20260502220331 66 255 0.0 2.0 0.00 0.00 0.00 34 1008.5
20260502215849 66 239 0.0 2.0 0.00 0.00 0.00 35 1008.5
20260502215344 66 240 0.0 2.0 0.00 0.00 0.00 34 1008.6
20260502214840 66 231 0.0 0.0 0.00 0.00 0.00 34 1008.7
20260502214340 65 218 0.0 0.0 0.00 0.00 0.00 34 1008.8
20260502213827 65 209 0.0 2.0 0.00 0.00 0.00 33 1008.8
20260502213323 65 236 0.0 5.0 0.00 0.00 0.00 33 1008.9
20260502212827 66 222 0.0 5.0 0.00 0.00 0.00 34 1009.0
20260502212314 66 210 0.0 4.0 0.00 0.00 0.00 33 1009.1
20260502211831 66 236 0.0 4.0 0.00 0.00 0.00 34 1009.2
20260502211314 66 300 0.0 8.0 0.00 0.00 0.00 32 1009.3
20260502210822 66 232 2.0 8.0 0.00 0.00 0.00 31 1009.4
20260502210319 66 288 0.0 6.0 0.00 0.00 0.00 32 1009.5
20260502205841 66 251 1.0 6.0 0.00 0.00 0.00 31 1009.6
20260502205317 66 248 0.0 6.0 0.00 0.00 0.00 31 1009.6
20260502204826 67 281 1.0 5.0 0.00 0.00 0.00 31 1009.7
20260502204329 67 207 1.0 5.0 0.00 0.00 0.00 31 1009.8
20260502203825 67 256 0.0 2.0 0.00 0.00 0.00 33 1009.9
20260502203328 67 279 0.0 5.0 0.00 0.00 0.00 32 1010.0
20260502202841 66 237 1.0 6.0 0.00 0.00 0.00 33 1010.1
20260502202336 66 244 1.0 4.0 0.00 0.00 0.00 33 1010.2
20260502201824 65 241 1.0 4.0 0.00 0.00 0.00 33 1010.3
20260502201320 65 245 1.0 4.0 0.00 0.00 0.00 33 1010.5
20260502200817 64 241 2.0 4.0 0.00 0.00 0.00 33 1010.6
20260502200325 64 226 1.0 5.0 0.00 0.00 0.00 34 1010.7
20260502195829 65 273 1.0 5.0 0.00 0.00 0.00 33 1010.8
20260502195346 65 222 1.0 7.0 0.00 0.00 0.00 33 1010.8
20260502194820 65 213 1.0 7.0 0.00 0.00 0.00 34 1010.9
20260502194324 64 148 1.0 6.0 0.00 0.00 0.00 34 1011.0
20260502193832 63 212 0.0 5.0 0.00 0.00 0.00 37 1011.2
20260502193348 63 221 0.0 5.0 0.00 0.00 0.00 35 1011.3
20260502192829 63 213 0.0 5.0 0.00 0.00 0.00 34 1011.4
20260502192346 64 251 1.0 4.0 0.00 0.00 0.00 34 1011.5
20260502191837 64 232 1.0 4.0 0.00 0.00 0.00 33 1011.6
20260502191335 64 251 0.0 4.0 0.00 0.00 0.00 36 1011.7
20260502190822 63 271 1.0 5.0 0.00 0.00 0.00 34 1011.9
20260502190338 63 246 0.0 5.0 0.00 0.00 0.00 35 1012.0
20260502185842 63 229 1.0 4.0 0.00 0.00 0.00 34 1012.1
20260502185329 63 244 1.0 4.0 0.00 0.00 0.00 35 1012.1
20260502184825 63 192 0.0 4.0 0.00 0.00 0.00 34 1012.2
20260502184320 63 271 1.0 4.0 0.00 0.00 0.00 34 1012.4
20260502183816 62 186 0.0 4.0 0.00 0.00 0.00 36 1012.4
20260502183332 62 244 1.0 4.0 0.00 0.00 0.00 34 1012.5
20260502182835 61 227 0.0 6.0 0.00 0.00 0.00 34 1012.6
20260502182323 61 210 0.0 4.0 0.00 0.00 0.00 36 1012.7
20260502181821 61 231 0.0 5.0 0.00 0.00 0.00 34 1012.7
20260502181321 61 236 1.0 5.0 0.00 0.00 0.00 35 1012.9
20260502180857 61 275 1.0 4.0 0.00 0.00 0.00 35 1012.9
20260502180323 60 179 0.0 7.0 0.00 0.00 0.00 36 1013.1
20260502170337 58 205 1.0 5.0 0.00 0.00 0.00 36 1014.1
20260502164322 57 205 1.0 5.0 0.00 0.00 0.00 36 1014.4
20260502163817 58 214 0.0 4.0 0.00 0.00 0.00 37 1014.4
20260502163323 58 205 0.0 4.0 0.00 0.00 0.00 39 1014.5
20260502162819 57 225 0.0 2.0 0.00 0.00 0.00 40 1014.6
20260502162316 57 192 0.0 4.0 0.00 0.00 0.00 38 1014.6
20260502161832 57 197 0.0 6.0 0.00 0.00 0.00 38 1014.8
20260502161335 56 212 0.0 6.0 0.00 0.00 0.00 39 1014.7
20260502160824 56 250 1.0 4.0 0.00 0.00 0.00 39 1014.9
20260502160340 56 208 0.0 2.0 0.00 0.00 0.00 39 1015.0
20260502152328 55 226 0.0 2.0 0.00 0.00 0.00 42 1015.3
20260502151841 54 248 1.0 3.0 0.00 0.00 0.00 40 1015.4
20260502151324 54 246 0.0 4.0 0.00 0.00 0.00 41 1015.4
20260502150901 54 211 1.0 3.0 0.00 0.00 0.00 41 1015.5
20260502150328 54 275 0.0 1.0 0.00 0.00 0.00 43 1015.5
20260502130334 42 246 0.0 0.0 0.00 0.00 0.00 72 1016.3
20260502123325 39 248 0.0 0.0 0.00 0.00 0.00 79 1016.4
20260502122820 38 248 0.0 0.0 0.00 0.00 0.00 80 1016.4
20260502122336 38 248 0.0 0.0 0.00 0.00 0.00 82 1016.4
20260502121833 38 248 0.0 0.0 0.00 0.00 0.00 82 1016.4
20260502121317 38 248 0.0 0.0 0.00 0.00 0.00 82 1016.3
20260502120825 37 248 0.0 0.0 0.00 0.00 0.00 83 1016.3
20260502120322 37 248 0.0 0.0 0.00 0.00 0.00 83 1016.3
20260502115824 37 248 0.0 0.0 0.00 0.00 0.00 83 1016.3
20260502115340 37 248 0.0 0.0 0.00 0.00 0.00 83 1016.2
20260502114828 36 248 0.0 0.0 0.00 0.00 0.00 83 1016.3
20260502114330 36 248 0.0 0.0 0.00 0.00 0.00 83 1016.2
20260502113818 36 248 0.0 0.0 0.00 0.00 0.00 83 1016.2
20260502113314 36 248 0.0 0.0 0.00 0.00 0.00 83 1016.3
20260502112818 36 248 0.0 0.0 0.00 0.00 0.00 83 1016.3
20260502112335 36 248 0.0 0.0 0.00 0.00 0.00 83 1016.3
20260502111823 36 248 0.0 0.0 0.00 0.00 0.00 83 1016.3
20260502111322 36 248 0.0 0.0 0.00 0.00 0.00 82 1016.3
20260502110818 36 248 0.0 0.0 0.00 0.00 0.00 82 1016.3
20260502110325 36 248 0.0 0.0 0.00 0.00 0.00 82 1016.2
20260502105828 36 247 0.0 0.0 0.00 0.00 0.00 81 1016.2
20260502105326 36 244 0.0 0.0 0.00 0.00 0.00 81 1016.3
20260502104843 36 249 0.0 0.0 0.00 0.00 0.00 80 1016.3
20260502104324 36 246 0.0 0.0 0.00 0.00 0.00 78 1016.2
20260502103829 36 246 0.0 0.0 0.00 0.00 0.00 77 1016.2
20260502103325 36 245 0.0 0.0 0.00 0.00 0.00 77 1016.2
20260502102821 36 245 0.0 0.0 0.00 0.00 0.00 78 1016.2
20260502102338 36 245 0.0 0.0 0.00 0.00 0.00 78 1016.2
20260502101825 36 245 0.0 0.0 0.00 0.00 0.00 77 1016.1
20260502101323 36 245 0.0 0.0 0.00 0.00 0.00 77 1016.1
20260502100819 36 245 0.0 0.0 0.00 0.00 0.00 77 1016.1
20260502100327 36 245 0.0 0.0 0.00 0.00 0.00 76 1016.0
20260502091327 39 238 0.0 0.0 0.00 0.00 0.00 70 1015.9
20260502090823 39 243 0.0 0.0 0.00 0.00 0.00 70 1015.8
20260502090328 39 242 0.0 0.0 0.00 0.00 0.00 69 1015.8
20260502071331 42 257 0.0 0.0 0.00 0.00 0.00 61 1016.1
20260502070818 42 242 0.0 0.0 0.00 0.00 0.00 61 1016.1
20260502070335 42 242 0.0 0.0 0.00 0.00 0.00 61 1016.1
20260502065837 42 239 0.0 0.0 0.00 0.00 0.00 61 1016.1
20260502065325 42 238 0.0 0.0 0.00 0.00 0.00 61 1016.2
20260502064838 42 239 0.0 0.0 0.00 0.00 0.00 60 1016.2
20260502064321 42 241 0.0 0.0 0.00 0.00 0.00 60 1016.2
20260502063838 42 242 0.0 0.0 0.00 0.00 0.00 60 1016.3
20260502063325 42 243 0.0 0.0 0.00 0.00 0.00 60 1016.3
20260502062820 42 242 0.0 0.0 0.00 0.00 0.00 61 1016.3
20260502062316 42 240 0.0 0.0 0.00 0.00 0.00 61 1016.3
20260502061824 42 246 0.0 0.0 0.00 0.00 0.00 60 1016.3
20260502060822 43 242 0.0 0.0 0.00 0.00 0.00 60 1016.3
20260502060338 43 246 0.0 0.0 0.00 0.00 0.00 60 1016.3
20260502055822 42 244 0.0 0.0 0.00 0.00 0.00 60 1016.3
20260502055329 42 242 0.0 0.0 0.00 0.00 0.00 60 1016.3
20260502054826 42 244 0.0 0.0 0.00 0.00 0.00 60 1016.2
20260502054350 42 246 0.0 0.0 0.00 0.00 0.00 61 1016.2
20260502053817 42 238 0.0 0.0 0.00 0.00 0.00 60 1016.3
20260502053314 42 242 0.0 0.0 0.00 0.00 0.00 61 1016.3
20260502052817 41 249 0.0 0.0 0.00 0.00 0.00 64 1016.3
20260502052334 41 245 0.0 0.0 0.00 0.00 0.00 65 1016.3
20260502051822 41 246 0.0 0.0 0.00 0.00 0.00 67 1016.4
20260502051344 40 251 0.0 0.0 0.00 0.00 0.00 68 1016.4
20260502050901 40 251 0.0 0.0 0.00 0.00 0.00 68 1016.4
20260502050346 40 251 0.0 0.0 0.00 0.00 0.00 68 1016.4
20260502045829 40 251 0.0 0.0 0.00 0.00 0.00 68 1016.5
20260502045317 41 251 0.0 0.0 0.00 0.00 0.00 67 1016.4
20260502044832 41 251 0.0 0.0 0.00 0.00 0.00 66 1016.4
20260502044318 41 250 0.0 0.0 0.00 0.00 0.00 65 1016.4
20260502043824 41 250 0.0 0.0 0.00 0.00 0.00 65 1016.4
20260502043321 41 250 0.0 0.0 0.00 0.00 0.00 64 1016.4
20260502042843 42 250 0.0 0.0 0.00 0.00 0.00 65 1016.4
20260502042339 42 241 0.0 0.0 0.00 0.00 0.00 63 1016.4
20260502041834 42 248 0.0 0.0 0.00 0.00 0.00 60 1016.4
20260502041334 43 244 0.0 0.0 0.00 0.00 0.00 59 1016.4
20260502040821 44 239 0.0 0.0 0.00 0.00 0.00 58 1016.4
20260502040338 44 239 0.0 0.0 0.00 0.00 0.00 56 1016.4
20260502035819 44 239 0.0 0.0 0.00 0.00 0.00 55 1016.5
20260502035337 45 239 0.0 0.0 0.00 0.00 0.00 51 1016.4
20260502034845 45 237 0.0 0.0 0.00 0.00 0.00 52 1016.4
20260502034331 45 239 0.0 0.0 0.00 0.00 0.00 50 1016.5
20260502033818 45 240 0.0 0.0 0.00 0.00 0.00 49 1016.4
20260502033335 45 240 0.0 0.0 0.00 0.00 0.00 48 1016.4
20260502032838 46 242 0.0 0.0 0.00 0.00 0.00 49 1016.4
20260502032325 46 242 0.0 0.0 0.00 0.00 0.00 48 1016.4
20260502031822 46 246 0.0 0.0 0.00 0.00 0.00 47 1016.4
20260502031327 46 247 0.0 0.0 0.00 0.00 0.00 47 1016.4
20260502030834 47 248 0.0 0.0 0.00 0.00 0.00 44 1016.4
20260502030400 47 248 0.0 0.0 0.00 0.00 0.00 43 1016.5
20260502025813 47 248 0.0 0.0 0.00 0.00 0.00 42 1016.4
20260502025346 47 248 0.0 0.0 0.00 0.00 0.00 42 1016.5
20260502024821 47 249 0.0 0.0 0.00 0.00 0.00 43 1016.4
20260502024324 47 252 0.0 0.0 0.00 0.00 0.00 44 1016.5